Blok-2BL - Orbit

View from above orbital plane
View from above orbital plane
View from above satellite
View from above satellite

Ground track
Ground track

The orbit data is extracted from the following two-line orbital elements,

1 19448U 88076D   13143.20544708  .00214563  13966-5  73314-3 0  9438
2 19448 063.2122 209.8857 2506752 194.0504 261.7883 10.60246347327609
Epoch (UTC): 23 May 2013 04:55:50
Eccentricity: 0.2506752
inclination: 63.2122°
perigee height: 180 km
apogee height: 4568 km
right ascension of ascending node: 209.8857°
argument of perigee: 194.0504°
revolutions per day: 10.60246347
mean anomaly at epoch: 261.7883°
orbit number at epoch: 32760

The dashed part of the orbit path shows where the satellite is in the earth's shadow,  

Developed and maintained by Chris Peat, Heavens-Above GmbH. Please read the updated FAQ before sending e-mail. Imprint. DLR